GFSNGP_500_temp_105.txt.gz
Temp
-21 -21 -20 -20 -20 -20 -20 -20 -20 -19 -19 -19 -18 -18 -16 -16 -16 -15 -16 -15 -15 -14 -14 -14 -14 -14 -16 -15 -15 -15 -15 -15 -15 -14 -14 -14 -15 -14 -14 -14 -14 -14 -14 -14
-20 -21 -21 -21 -20 -20 -20 -20 -20 -19 -19 -19 -18 -18 -18 -17 -17 -16 -15 -15 -15 -14 -14 -15 -14 -14 -15 -15 -16 -16 -15 -15 -15 -14 -14 -14 -15 -15 -15 -15 -15 -15 -15 -15
-24 -21 -22 -21 -20 -20 -19 -20 -20 -19 -19 -19 -18 -18 -18 -18 -17 -17 -16 -16 -14 -14 -15 -15 -15 -15 -15 -15 -14 -15 -15 -15 -15 -16 -15 -15 -15 -15 -15 -16 -16 -15 -16 -16
-23 -23 -23 -23 -21 -21 -20 -19 -20 -19 -19 -19 -19 -19 -19 -19 -18 -17 -17 -16 -16 -15 -15 -15 -15 -15 -15 -15 -15 -14 -15 -15 -15 -15 -16 -16 -15 -15 -15 -16 -16 -16 -16 -16
-24 -23 -23 -24 -22 -21 -21 -20 -20 -20 -19 -19 -19 -19 -19 -18 -18 -18 -17 -17 -16 -16 -16 -15 -16 -16 -16 -15 -15 -15 -16 -15 -15 -15 -15 -15 -16 -16 -15 -16 -16 -16 -16 -16
-24 -24 -23 -23 -22 -22 -21 -21 -21 -20 -20 -20 -20 -20 -19 -19 -19 -18 -18 -18 -17 -17 -17 -17 -16 -15 -15 -16 -16 -16 -16 -15 -15 -15 -15 -15 -15 -15 -16 -16 -16 -16 -16 -16
-23 -23 -23 -23 -22 -22 -22 -21 -21 -20 -20 -21 -21 -20 -19 -19 -18 -18 -18 -18 -18 -17 -17 -16 -16 -16 -16 -15 -15 -15 -15 -15 -15 -16 -15 -15 -15 -15 -15 -15 -15 -15 -15 -15
-23 -23 -22 -22 -22 -22 -21 -21 -21 -21 -21 -20 -20 -20 -19 -19 -18 -18 -17 -17 -17 -17 -17 -17 -16 -16 -16 -17 -16 -15 -15 -15 -15 -15 -16 -16 -15 -15 -15 -15 -15 -15 -15 -15
-23 -22 -23 -22 -22 -22 -22 -21 -21 -21 -21 -21 -20 -19 -19 -18 -18 -18 -18 -18 -17 -17 -16 -16 -16 -16 -16 -16 -16 -16 -16 -15 -15 -15 -14 -15 -16 -16 -16 -15 -15 -15 -15 -15
-24 -23 -23 -22 -22 -22 -22 -21 -21 -21 -21 -20 -20 -19 -19 -19 -18 -18 -18 -17 -17 -17 -17 -16 -16 -16 -16 -16 -15 -15 -15 -15 -15 -15 -14 -14 -14 -15 -16 -15 -16 -16 -16 -16
-23 -23 -23 -23 -23 -23 -22 -22 -22 -22 -21 -21 -20 -20 -19 -19 -19 -18 -18 -18 -17 -17 -17 -16 -16 -16 -16 -16 -15 -15 -15 -15 -15 -15 -14 -14 -14 -14 -15 -15 -16 -16 -16 -16
-23 -23 -23 -23 -23 -23 -22 -23 -22 -22 -22 -21 -21 -20 -20 -19 -19 -19 -18 -18 -18 -18 -17 -17 -16 -16 -16 -15 -15 -15 -15 -15 -15 -15 -15 -15 -15 -15 -15 -16 -16 -16 -17 -17
-23 -23 -23 -23 -23 -23 -23 -23 -22 -22 -22 -21 -21 -21 -20 -20 -20 -19 -19 -18 -18 -18 -18 -17 -17 -17 -17 -17 -17 -16 -16 -16 -16 -16 -17 -17 -17 -17 -18 -18 -18 -18 -18 -18
-23 -23 -22 -23 -23 -22 -22 -23 -22 -22 -22 -22 -22 -21 -21 -21 -21 -20 -20 -19 -19 -19 -18 -19 -19 -19 -19 -18 -19 -18 -18 -17 -17 -17 -18 -18 -19 -19 -19 -19 -19 -19 -18 -18
-24 -24 -23 -23 -23 -22 -23 -22 -22 -22 -22 -22 -22 -22 -21 -21 -21 -21 -20 -20 -20 -20 -20 -20 -19 -19 -19 -19 -18 -18 -18 -18 -18 -18 -18 -19 -19 -19 -20 -19 -19 -18 -19 -19
-24 -24 -24 -23 -23 -23 -23 -23 -23 -23 -23 -22 -22 -22 -22 -21 -21 -21 -21 -21 -21 -20 -20 -20 -20 -20 -19 -19 -19 -19 -18 -18 -18 -19 -19 -19 -19 -19 -19 -19 -20 -19 -19 -20
-24 -24 -24 -23 -23 -23 -23 -23 -23 -23 -22 -23 -23 -22 -22 -21 -21 -21 -21 -21 -21 -20 -20 -20 -20 -20 -20 -20 -20 -19 -20 -20 -19 -19 -19 -19 -19 -20 -19 -20 -20 -20 -20 -20
-24 -24 -24 -23 -23 -23 -23 -23 -23 -23 -22 -22 -22 -22 -22 -22 -22 -21 -21 -21 -21 -20 -20 -20 -20 -20 -20 -20 -20 -20 -20 -21 -21 -21 -21 -21 -21 -21 -21 -21 -21 -21 -21 -21
-24 -24 -23 -23 -23 -23 -23 -23 -23 -22 -23 -23 -23 -22 -22 -22 -21 -21 -21 -21 -21 -21 -21 -20 -20 -20 -20 -20 -21 -21 -21 -21 -21 -21 -21 -21 -21 -21 -21 -21 -21 -21 -21 -21
-24 -24 -24 -24 -24 -23 -23 -23 -23 -23 -23 -22 -23 -22 -22 -22 -22 -21 -21 -21 -21 -21 -21 -21 -20 -20 -20 -21 -21 -22 -22 -21 -21 -21 -22 -22 -22 -22 -22 -22 -22 -22 -22 -22
-25 -24 -24 -24 -24 -23 -23 -23 -23 -23 -23 -23 -22 -22 -22 -22 -21 -21 -21 -21 -21 -21 -21 -21 -21 -21 -21 -21 -22 -22 -23 -23 -22 -22 -22 -22 -22 -23 -23 -23 -23 -23 -23 -23
-25 -25 -25 -25 -24 -24 -24 -24 -23 -23 -23 -23 -23 -22 -22 -22 -22 -22 -22 -21 -21 -21 -21 -22 -22 -23 -23 -23 -23 -23 -24 -23 -23 -23 -23 -23 -23 -23 -23 -23 -23 -23 -23 -23
-25 -25 -25 -25 -24 -24 -24 -24 -23 -23 -23 -23 -23 -22 -22 -22 -22 -22 -22 -22 -22 -23 -23 -23 -23 -24 -24 -24 -24 -24 -24 -24 -24 -25 -24 -24 -23 -23 -23 -24 -24 -24 -24 -24
-26 -26 -25 -25 -25 -24 -24 -24 -24 -23 -23 -23 -22 -22 -22 -22 -23 -23 -23 -23 -24 -23 -23 -24 -24 -25 -25 -25 -25 -25 -25 -25 -25 -25 -25 -24 -24 -25 -24 -24 -24 -24 -25 -25
-26 -25 -25 -25 -25 -25 -25 -24 -24 -24 -24 -24 -23 -23 -23 -23 -24 -24 -24 -24 -24 -24 -24 -24 -24 -25 -25 -25 -25 -25 -25 -25 -25 -25 -25 -25 -25 -25 -25 -25 -25 -26 -26 -26
-26 -26 -26 -25 -25 -25 -25 -25 -25 -25 -24 -24 -24 -24 -24 -24 -24 -24 -24 -24 -24 -24 -24 -24 -24 -25 -25 -25 -25 -25 -25 -25 -25 -25 -25 -25 -26 -26 -26 -26 -27 -27 -27 -27
-26 -26 -26 -26 -26 -25 -25 -25 -25 -25 -25 -25 -25 -25 -25 -24 -24 -24 -24 -25 -25 -25 -25 -25 -25 -25 -25 -25 -25 -25 -25 -26 -26 -26 -27 -27 -27 -27 -27 -28 -28 -28 -28 -29

GFSNGP_500_temp_111.txt.gz
Temp
-22 -23 -23 -23 -22 -22 -21 -21 -20 -19 -19 -19 -18 -18 -19 -19 -18 -18 -17 -16 -15 -14 -14 -14 -14 -14 -15 -15 -14 -15 -15 -14 -14 -14 -13 -13 -13 -13 -13 -13 -13 -13 -13 -13
-24 -23 -23 -22 -22 -22 -21 -21 -21 -20 -19 -19 -19 -19 -19 -19 -18 -18 -18 -17 -17 -15 -15 -15 -15 -15 -15 -15 -15 -15 -15 -15 -14 -14 -14 -14 -13 -13 -13 -13 -13 -13 -13 -13
-24 -23 -22 -23 -22 -22 -21 -21 -20 -20 -19 -19 -19 -19 -19 -19 -18 -18 -18 -18 -17 -16 -16 -15 -15 -14 -15 -15 -15 -15 -14 -15 -15 -14 -14 -14 -14 -14 -13 -13 -13 -13 -13 -14
-24 -24 -23 -22 -22 -22 -21 -21 -20 -20 -20 -20 -20 -20 -20 -19 -19 -19 -19 -18 -17 -16 -16 -16 -15 -14 -15 -15 -15 -15 -15 -15 -14 -15 -15 -14 -14 -14 -14 -13 -13 -13 -14 -14
-24 -24 -24 -23 -23 -22 -22 -21 -20 -20 -20 -20 -20 -20 -19 -20 -20 -19 -19 -18 -18 -17 -17 -17 -16 -14 -15 -15 -15 -15 -15 -15 -15 -15 -14 -15 -15 -15 -15 -15 -15 -14 -14 -14
-24 -24 -23 -23 -23 -22 -22 -21 -21 -20 -20 -20 -19 -19 -20 -20 -19 -19 -19 -18 -18 -18 -17 -17 -16 -16 -15 -14 -15 -14 -15 -14 -14 -15 -14 -15 -15 -15 -15 -15 -14 -15 -15 -15
-24 -24 -23 -23 -23 -24 -22 -21 -21 -20 -20 -20 -20 -19 -20 -20 -20 -19 -19 -19 -18 -18 -18 -17 -17 -17 -15 -14 -15 -14 -14 -15 -15 -15 -15 -15 -15 -15 -15 -15 -15 -15 -15 -15
-23 -24 -23 -23 -23 -23 -23 -22 -21 -20 -21 -21 -20 -20 -20 -20 -20 -20 -19 -19 -19 -19 -19 -18 -17 -17 -17 -17 -16 -15 -15 -15 -15 -15 -15 -15 -15 -15 -15 -15 -15 -15 -16 -15
-25 -24 -23 -23 -23 -23 -23 -22 -22 -21 -21 -21 -21 -21 -20 -20 -20 -20 -20 -20 -19 -18 -18 -20 -19 -18 -17 -17 -17 -16 -16 -16 -16 -16 -16 -16 -16 -16 -15 -14 -15 -15 -15 -15
-24 -24 -23 -22 -22 -22 -22 -22 -22 -21 -21 -20 -21 -20 -20 -20 -21 -21 -20 -20 -19 -18 -18 -18 -18 -18 -18 -18 -18 -17 -17 -17 -16 -16 -16 -16 -16 -15 -15 -15 -15 -16 -16 -16
-25 -25 -25 -23 -22 -22 -22 -22 -22 -22 -21 -21 -21 -21 -21 -21 -21 -20 -20 -20 -19 -19 -18 -18 -18 -17 -17 -17 -18 -17 -17 -17 -16 -16 -16 -16 -16 -16 -15 -15 -15 -15 -15 -15
-25 -25 -25 -25 -24 -23 -22 -22 -22 -22 -22 -22 -22 -22 -22 -21 -21 -21 -21 -20 -19 -19 -19 -18 -18 -18 -17 -17 -17 -17 -17 -16 -16 -16 -16 -16 -16 -16 -16 -15 -15 -15 -15 -15
-25 -25 -25 -25 -24 -24 -24 -23 -23 -22 -22 -23 -22 -22 -22 -22 -21 -21 -21 -21 -20 -20 -19 -19 -19 -18 -18 -18 -18 -17 -17 -17 -17 -16 -16 -16 -16 -16 -16 -16 -16 -16 -16 -15
-25 -25 -25 -25 -24 -24 -24 -23 -23 -23 -23 -23 -22 -22 -22 -22 -22 -21 -21 -21 -21 -21 -20 -20 -19 -19 -19 -19 -19 -18 -18 -17 -17 -18 -18 -18 -18 -17 -17 -17 -17 -17 -18 -18
-25 -25 -25 -25 -24 -24 -23 -23 -23 -23 -23 -23 -23 -23 -23 -23 -22 -22 -22 -21 -21 -21 -21 -21 -20 -20 -20 -20 -20 -19 -19 -19 -19 -19 -18 -19 -18 -18 -18 -18 -18 -18 -19 -19
-25 -24 -24 -24 -24 -24 -23 -23 -23 -23 -23 -23 -23 -23 -23 -22 -22 -22 -22 -22 -21 -21 -21 -21 -20 -20 -20 -20 -20 -20 -20 -19 -19 -19 -19 -19 -19 -19 -19 -19 -19 -20 -20 -19
-25 -25 -24 -24 -24 -24 -24 -23 -23 -23 -23 -23 -23 -23 -23 -23 -22 -22 -22 -22 -22 -21 -21 -21 -21 -21 -20 -20 -20 -20 -20 -20 -20 -19 -19 -19 -20 -20 -19 -19 -20 -20 -20 -20
-26 -25 -25 -25 -25 -24 -24 -24 -24 -24 -24 -24 -24 -23 -23 -23 -22 -22 -22 -22 -22 -22 -21 -21 -21 -21 -21 -21 -20 -20 -20 -20 -20 -20 -20 -20 -20 -20 -20 -20 -20 -21 -21 -21
-25 -25 -25 -24 -24 -24 -24 -23 -24 -23 -23 -23 -23 -23 -23 -23 -22 -22 -22 -22 -22 -22 -21 -21 -21 -21 -21 -21 -21 -21 -21 -21 -21 -21 -21 -21 -21 -21 -21 -21 -21 -21 -21 -22
-25 -25 -24 -24 -24 -24 -23 -23 -23 -23 -23 -23 -23 -22 -22 -22 -22 -22 -22 -22 -22 -22 -22 -22 -22 -21 -21 -21 -21 -21 -21 -21 -21 -21 -21 -21 -21 -21 -21 -21 -22 -22 -23 -23
-25 -25 -25 -25 -25 -24 -24 -24 -24 -24 -23 -23 -23 -23 -23 -23 -23 -23 -23 -22 -22 -22 -22 -23 -22 -22 -22 -22 -22 -21 -21 -21 -21 -21 -21 -21 -21 -22 -22 -22 -23 -23 -24 -23
-26 -26 -26 -26 -25 -25 -25 -25 -25 -24 -24 -24 -24 -24 -24 -24 -24 -24 -23 -23 -23 -23 -23 -23 -23 -23 -22 -22 -22 -22 -22 -22 -22 -22 -22 -22 -23 -23 -24 -24 -24 -25 -25 -25
-26 -26 -26 -26 -26 -26 -26 -25 -25 -24 -24 -24 -24 -24 -24 -24 -24 -24 -23 -23 -23 -23 -23 -23 -23 -23 -22 -22 -22 -22 -22 -23 -23 -23 -23 -24 -24 -25 -25 -25 -25 -25 -25 -25
-26 -25 -25 -25 -25 -25 -25 -25 -25 -24 -24 -24 -24 -24 -24 -24 -24 -24 -23 -23 -23 -23 -23 -23 -23 -23 -23 -23 -23 -24 -24 -24 -24 -24 -24 -24 -24 -25 -25 -25 -25 -25 -26 -26
-26 -26 -26 -26 -26 -26 -26 -26 -25 -25 -25 -25 -25 -24 -24 -24 -24 -24 -24 -24 -24 -24 -24 -24 -24 -24 -24 -24 -24 -25 -25 -25 -25 -25 -24 -25 -25 -25 -25 -25 -26 -26 -26 -26
-26 -26 -26 -26 -26 -26 -26 -26 -26 -26 -26 -26 -25 -25 -25 -25 -25 -25 -25 -25 -25 -24 -24 -24 -24 -24 -25 -25 -25 -25 -25 -25 -25 -25 -25 -25 -25 -25 -25 -26 -26 -26 -27 -27
-28 -27 -27 -27 -27 -27 -27 -27 -27 -27 -27 -26 -26 -26 -26 -26 -26 -26 -25 -25 -25 -25 -25 -25 -25 -25 -25 -25 -25 -25 -25 -26 -26 -26 -26 -26 -26 -26 -26 -26 -27 -27 -28 -28

GFSNGP_500_temp_114.txt.gz
Temp
-23 -22 -22 -23 -22 -22 -22 -22 -23 -21 -21 -21 -19 -19 -19 -18 -18 -17 -17 -17 -16 -15 -14 -15 -15 -14 -15 -14 -14 -14 -14 -14 -15 -15 -14 -14 -14 -14 -14 -14 -13 -13 -13 -13
-24 -22 -22 -22 -22 -23 -22 -22 -21 -21 -20 -22 -20 -19 -19 -19 -18 -18 -18 -17 -17 -16 -15 -14 -14 -14 -14 -14 -14 -14 -14 -14 -14 -14 -14 -14 -14 -14 -14 -14 -14 -13 -13 -13
-24 -23 -22 -23 -22 -22 -22 -22 -21 -21 -21 -20 -20 -19 -19 -19 -19 -19 -18 -18 -17 -17 -16 -15 -15 -14 -14 -14 -14 -14 -14 -14 -14 -14 -14 -14 -14 -14 -14 -14 -14 -13 -13 -13
-24 -23 -23 -23 -22 -22 -22 -21 -21 -21 -21 -21 -20 -20 -19 -19 -19 -19 -18 -18 -18 -18 -17 -17 -15 -15 -14 -14 -14 -13 -14 -14 -14 -14 -14 -14 -14 -14 -14 -14 -14 -14 -14 -14
-24 -24 -23 -23 -22 -22 -22 -21 -21 -20 -21 -21 -21 -20 -20 -20 -19 -19 -19 -19 -18 -18 -17 -17 -16 -15 -14 -14 -14 -14 -14 -14 -14 -14 -14 -14 -14 -14 -14 -14 -15 -15 -14 -14
-24 -24 -23 -23 -22 -22 -21 -22 -20 -20 -21 -21 -20 -20 -20 -20 -20 -19 -19 -19 -18 -18 -17 -17 -16 -16 -15 -15 -14 -14 -14 -14 -14 -14 -15 -14 -14 -14 -14 -15 -15 -15 -15 -15
-24 -23 -23 -23 -22 -22 -22 -21 -21 -20 -20 -20 -20 -20 -20 -20 -20 -19 -19 -19 -19 -18 -18 -17 -17 -16 -16 -15 -15 -14 -14 -14 -14 -14 -14 -14 -15 -15 -15 -15 -15 -15 -15 -15
-24 -23 -23 -23 -23 -22 -22 -21 -21 -21 -21 -20 -20 -20 -20 -19 -19 -20 -20 -19 -19 -19 -18 -18 -17 -17 -16 -16 -15 -15 -14 -15 -15 -14 -14 -15 -14 -15 -15 -15 -15 -15 -15 -15
-25 -23 -23 -23 -23 -23 -22 -21 -21 -21 -21 -21 -21 -20 -20 -20 -20 -20 -20 -20 -19 -19 -19 -18 -18 -17 -17 -17 -16 -15 -15 -15 -14 -14 -15 -15 -15 -15 -15 -16 -16 -16 -15 -15
-25 -24 -23 -22 -22 -23 -22 -22 -21 -22 -21 -21 -21 -21 -21 -21 -20 -20 -20 -20 -20 -20 -19 -19 -19 -19 -18 -17 -17 -17 -17 -16 -15 -15 -15 -15 -15 -15 -16 -15 -15 -15 -15 -15
-25 -24 -23 -23 -22 -22 -22 -23 -22 -22 -21 -21 -21 -21 -21 -21 -20 -20 -20 -20 -20 -20 -19 -19 -19 -18 -18 -18 -19 -19 -18 -18 -17 -16 -16 -16 -17 -17 -16 -16 -16 -16 -16 -16
-25 -25 -25 -25 -23 -22 -22 -22 -22 -22 -21 -21 -22 -21 -21 -21 -21 -21 -21 -20 -20 -20 -20 -19 -19 -18 -18 -18 -18 -18 -18 -18 -18 -17 -17 -18 -17 -17 -16 -16 -16 -16 -16 -16
-26 -25 -25 -25 -24 -24 -23 -23 -22 -22 -22 -21 -22 -22 -22 -22 -22 -21 -21 -20 -20 -20 -20 -19 -19 -19 -18 -18 -18 -18 -18 -18 -17 -17 -17 -17 -17 -16 -16 -16 -16 -16 -16 -16
-26 -25 -25 -25 -25 -24 -24 -23 -23 -22 -22 -22 -22 -22 -22 -22 -22 -22 -21 -21 -21 -21 -21 -20 -20 -20 -19 -19 -19 -18 -18 -18 -18 -17 -17 -17 -16 -16 -16 -16 -16 -16 -16 -16
-26 -25 -25 -25 -25 -24 -24 -23 -23 -23 -23 -23 -23 -23 -23 -22 -22 -22 -22 -21 -21 -21 -21 -21 -21 -21 -20 -20 -20 -20 -20 -20 -19 -19 -18 -18 -18 -18 -18 -18 -18 -18 -18 -18
-25 -25 -25 -25 -24 -24 -24 -24 -23 -23 -23 -23 -23 -23 -23 -23 -23 -22 -22 -22 -22 -22 -22 -21 -21 -21 -21 -21 -20 -20 -20 -20 -20 -20 -19 -19 -19 -19 -19 -19 -19 -19 -18 -18
-25 -25 -25 -25 -25 -24 -24 -24 -23 -23 -23 -23 -23 -23 -23 -23 -23 -23 -22 -22 -22 -22 -22 -22 -21 -21 -21 -21 -21 -20 -20 -20 -20 -20 -20 -19 -19 -19 -19 -20 -20 -20 -20 -20
-26 -25 -25 -25 -24 -24 -24 -24 -23 -23 -23 -23 -23 -23 -23 -23 -23 -23 -23 -22 -22 -22 -22 -22 -22 -21 -21 -21 -21 -21 -21 -21 -20 -20 -20 -20 -20 -20 -20 -20 -20 -20 -20 -20
-25 -25 -25 -25 -25 -25 -25 -24 -24 -24 -24 -23 -23 -23 -23 -23 -22 -22 -22 -22 -22 -22 -21 -21 -21 -21 -21 -21 -21 -21 -21 -21 -21 -21 -21 -21 -20 -20 -20 -20 -20 -21 -21 -21
-25 -25 -25 -25 -24 -24 -24 -24 -24 -24 -23 -23 -23 -23 -23 -23 -22 -22 -22 -22 -22 -22 -22 -21 -21 -21 -21 -21 -21 -22 -22 -21 -21 -21 -21 -21 -21 -21 -21 -21 -21 -21 -21 -21
-25 -25 -25 -25 -25 -25 -25 -24 -24 -24 -24 -24 -24 -23 -23 -23 -23 -22 -22 -22 -22 -22 -22 -22 -22 -22 -22 -22 -22 -22 -22 -22 -22 -22 -22 -21 -21 -21 -21 -21 -21 -21 -21 -22
-26 -26 -26 -26 -26 -25 -25 -25 -25 -25 -25 -24 -24 -24 -23 -23 -23 -23 -23 -23 -23 -23 -23 -23 -23 -23 -23 -23 -23 -23 -23 -23 -22 -22 -22 -22 -22 -22 -22 -22 -22 -22 -23 -23
-27 -26 -26 -26 -26 -26 -26 -26 -26 -25 -25 -25 -25 -24 -24 -24 -24 -24 -24 -23 -23 -23 -23 -23 -23 -23 -23 -23 -23 -23 -23 -23 -23 -23 -23 -23 -23 -23 -23 -23 -24 -24 -24 -24
-27 -26 -26 -26 -26 -26 -26 -26 -26 -26 -26 -25 -25 -25 -25 -24 -24 -24 -24 -23 -24 -24 -23 -23 -23 -23 -23 -23 -23 -23 -23 -23 -23 -23 -24 -24 -24 -24 -25 -24 -24 -24 -24 -25
-27 -27 -27 -27 -27 -27 -27 -27 -27 -27 -27 -26 -26 -26 -25 -25 -25 -24 -24 -24 -24 -24 -24 -24 -24 -24 -24 -24 -24 -24 -24 -24 -24 -24 -25 -25 -25 -25 -25 -25 -25 -25 -25 -25
-28 -28 -27 -27 -27 -27 -27 -27 -27 -27 -27 -27 -27 -26 -26 -26 -26 -25 -25 -25 -25 -25 -25 -25 -25 -25 -25 -25 -25 -25 -25 -25 -25 -25 -25 -25 -25 -25 -25 -26 -26 -26 -26 -25
-28 -28 -28 -28 -27 -27 -27 -27 -27 -27 -27 -27 -27 -27 -26 -27 -26 -26 -26 -26 -26 -26 -26 -26 -25 -25 -25 -25 -25 -25 -25 -25 -26 -26 -26 -26 -26 -26 -26 -26 -26 -26 -26 -26

GFSNGP_500_temp_117.txt.gz
Temp
-23 -22 -23 -21 -21 -22 -22 -21 -21 -21 -20 -19 -20 -19 -19 -19 -18 -18 -18 -17 -16 -16 -15 -15 -15 -14 -14 -14 -14 -14 -14 -14 -14 -14 -14 -14 -14 -14 -14 -14 -13 -13 -13 -13
-23 -23 -22 -22 -22 -22 -21 -21 -21 -21 -20 -20 -19 -17 -19 -19 -18 -18 -18 -17 -17 -16 -16 -15 -14 -14 -14 -14 -14 -14 -14 -14 -14 -14 -14 -14 -14 -14 -14 -14 -14 -13 -13 -13
-24 -23 -22 -22 -22 -22 -21 -21 -22 -21 -21 -20 -20 -19 -17 -20 -18 -18 -19 -18 -18 -17 -16 -15 -14 -15 -14 -14 -14 -14 -14 -14 -14 -14 -15 -14 -15 -15 -15 -14 -14 -14 -14 -13
-23 -23 -22 -22 -22 -22 -22 -22 -21 -22 -21 -20 -19 -19 -20 -20 -19 -19 -19 -19 -18 -17 -17 -16 -15 -15 -15 -15 -14 -14 -14 -14 -14 -14 -14 -14 -15 -15 -15 -14 -14 -14 -14 -14
-24 -23 -23 -23 -22 -22 -22 -21 -21 -20 -20 -20 -20 -20 -20 -20 -20 -19 -19 -19 -18 -18 -17 -17 -16 -16 -15 -15 -14 -15 -14 -14 -14 -14 -14 -14 -14 -15 -15 -15 -14 -14 -14 -15
-24 -24 -23 -23 -22 -22 -21 -21 -20 -21 -21 -20 -20 -20 -20 -20 -20 -20 -19 -19 -19 -18 -18 -18 -17 -17 -16 -15 -15 -14 -14 -14 -14 -14 -14 -14 -14 -14 -14 -14 -14 -14 -15 -15
-24 -24 -23 -23 -22 -22 -22 -21 -20 -20 -20 -20 -20 -20 -20 -20 -20 -20 -19 -19 -19 -18 -18 -18 -18 -17 -17 -16 -16 -15 -15 -14 -14 -14 -14 -15 -14 -15 -14 -15 -14 -15 -16 -16
-24 -24 -24 -23 -23 -22 -21 -21 -21 -21 -20 -20 -20 -20 -20 -20 -20 -20 -20 -19 -19 -19 -18 -18 -18 -17 -17 -17 -16 -16 -16 -15 -14 -14 -15 -14 -15 -15 -15 -14 -14 -15 -15 -16
-25 -24 -23 -23 -23 -22 -22 -22 -21 -21 -21 -21 -20 -20 -20 -20 -20 -19 -19 -20 -19 -19 -19 -19 -19 -18 -17 -16 -16 -16 -15 -15 -15 -15 -14 -14 -15 -15 -15 -14 -14 -14 -14 -15
-25 -24 -23 -23 -22 -22 -22 -21 -22 -21 -21 -21 -21 -20 -20 -20 -21 -21 -20 -20 -20 -20 -19 -19 -19 -18 -18 -18 -17 -17 -16 -15 -15 -16 -15 -15 -15 -15 -15 -15 -14 -14 -14 -14
-25 -24 -24 -23 -23 -22 -23 -22 -22 -22 -22 -22 -22 -22 -21 -21 -21 -21 -21 -20 -20 -20 -20 -20 -19 -19 -19 -18 -18 -18 -17 -16 -16 -15 -15 -15 -15 -15 -15 -15 -15 -15 -15 -15
-26 -25 -25 -23 -22 -22 -23 -22 -22 -22 -23 -22 -22 -22 -22 -22 -22 -22 -21 -21 -20 -20 -20 -20 -20 -20 -19 -19 -19 -18 -19 -19 -19 -18 -17 -16 -17 -16 -16 -16 -16 -16 -17 -17
-26 -26 -25 -25 -24 -23 -23 -23 -23 -23 -22 -22 -22 -22 -22 -22 -22 -21 -21 -21 -21 -20 -20 -20 -20 -20 -20 -19 -19 -19 -18 -18 -18 -19 -18 -18 -19 -19 -18 -18 -19 -18 -18 -17
-26 -25 -25 -25 -24 -23 -23 -23 -23 -23 -23 -22 -22 -22 -22 -22 -22 -22 -21 -21 -21 -21 -21 -21 -21 -21 -20 -20 -20 -20 -20 -19 -19 -18 -18 -18 -18 -18 -18 -18 -18 -18 -18 -17
-26 -26 -25 -25 -25 -24 -24 -23 -23 -23 -23 -23 -23 -22 -22 -22 -21 -22 -21 -21 -21 -21 -21 -21 -21 -21 -21 -21 -21 -20 -20 -20 -20 -20 -19 -19 -19 -18 -18 -18 -18 -18 -18 -18
-26 -25 -26 -25 -24 -24 -24 -24 -23 -23 -23 -23 -23 -23 -23 -23 -22 -22 -22 -22 -22 -22 -22 -22 -21 -21 -21 -21 -21 -21 -21 -20 -20 -20 -20 -20 -20 -19 -19 -19 -19 -19 -19 -19
-25 -25 -25 -25 -25 -25 -24 -24 -24 -24 -24 -23 -23 -23 -23 -23 -22 -22 -22 -22 -22 -22 -22 -22 -22 -22 -21 -21 -21 -21 -21 -21 -21 -20 -20 -20 -20 -20 -20 -20 -19 -19 -19 -19
-26 -26 -25 -25 -25 -25 -24 -24 -24 -23 -23 -23 -23 -23 -23 -23 -23 -23 -22 -22 -23 -22 -22 -22 -22 -22 -22 -21 -21 -21 -21 -21 -21 -21 -20 -20 -20 -20 -20 -20 -20 -20 -20 -20
-26 -25 -26 -25 -25 -25 -25 -24 -24 -24 -23 -23 -23 -23 -23 -23 -23 -23 -23 -23 -22 -22 -22 -22 -22 -22 -21 -21 -21 -21 -21 -21 -21 -21 -21 -21 -21 -20 -20 -20 -20 -20 -20 -20
-25 -25 -25 -25 -25 -25 -25 -25 -24 -24 -24 -24 -24 -23 -23 -23 -23 -23 -23 -22 -22 -22 -22 -21 -21 -21 -21 -21 -21 -21 -21 -21 -21 -21 -21 -21 -21 -21 -21 -21 -21 -21 -21 -21
-25 -25 -25 -25 -24 -24 -24 -24 -24 -24 -24 -24 -23 -23 -23 -23 -23 -22 -22 -22 -22 -22 -22 -22 -22 -22 -22 -21 -22 -22 -22 -21 -21 -21 -22 -22 -22 -22 -22 -22 -22 -22 -21 -21
-26 -26 -26 -25 -25 -25 -25 -25 -24 -24 -24 -24 -24 -24 -24 -24 -23 -23 -23 -23 -23 -23 -23 -23 -23 -23 -23 -23 -23 -23 -23 -23 -23 -23 -23 -23 -23 -23 -23 -22 -22 -22 -22 -22
-27 -27 -27 -26 -26 -26 -26 -25 -25 -25 -25 -25 -24 -24 -24 -24 -24 -24 -24 -23 -23 -23 -23 -24 -23 -23 -23 -23 -23 -23 -23 -23 -23 -23 -23 -23 -23 -23 -22 -22 -22 -22 -22 -23
-27 -27 -27 -27 -27 -26 -26 -26 -26 -26 -26 -26 -26 -25 -25 -25 -25 -25 -24 -24 -24 -24 -24 -24 -24 -24 -23 -23 -23 -23 -23 -23 -23 -23 -23 -23 -23 -23 -23 -23 -23 -23 -24 -24
-27 -27 -27 -27 -27 -27 -27 -27 -26 -26 -26 -26 -26 -26 -26 -26 -26 -26 -25 -25 -25 -25 -25 -24 -24 -24 -24 -23 -23 -24 -24 -24 -24 -24 -24 -24 -24 -24 -24 -24 -24 -25 -25 -25
-28 -28 -27 -27 -27 -27 -27 -27 -27 -27 -27 -27 -27 -26 -26 -26 -26 -26 -26 -26 -26 -26 -26 -25 -25 -25 -25 -25 -25 -25 -25 -25 -24 -25 -25 -25 -25 -25 -25 -25 -25 -25 -26 -26
-28 -28 -28 -28 -28 -28 -28 -28 -28 -28 -28 -28 -28 -28 -27 -27 -27 -27 -27 -26 -26 -26 -26 -26 -26 -26 -26 -26 -26 -26 -26 -25 -25 -25 -26 -26 -26 -26 -26 -26 -26 -26 -26 -26

GFSNGP_500_temp_120.txt.gz
Temp
-24 -22 -22 -22 -22 -22 -22 -22 -21 -21 -21 -21 -20 -20 -18 -18 -18 -17 -18 -18 -17 -17 -16 -16 -16 -15 -15 -14 -14 -13 -13 -13 -13 -14 -14 -14 -15 -15 -15 -15 -15 -14 -14 -13
-24 -23 -22 -21 -22 -21 -22 -22 -21 -21 -21 -20 -20 -18 -17 -17 -18 -17 -16 -17 -17 -17 -16 -16 -16 -15 -15 -14 -14 -14 -13 -13 -14 -14 -14 -15 -15 -15 -15 -15 -15 -15 -14 -13
-24 -23 -22 -22 -22 -21 -20 -22 -21 -21 -21 -20 -20 -19 -19 -18 -15 -17 -17 -18 -17 -16 -17 -16 -16 -15 -15 -14 -14 -14 -14 -14 -14 -14 -14 -14 -14 -14 -15 -15 -15 -15 -15 -14
-24 -23 -23 -22 -22 -22 -21 -20 -21 -21 -21 -20 -19 -19 -18 -19 -19 -19 -19 -19 -19 -18 -18 -17 -16 -16 -15 -15 -14 -14 -14 -14 -14 -14 -14 -14 -14 -15 -15 -15 -16 -15 -15 -14
-25 -24 -23 -23 -22 -22 -21 -21 -21 -21 -21 -21 -20 -19 -20 -19 -19 -19 -19 -19 -19 -18 -18 -17 -17 -16 -16 -15 -15 -14 -14 -14 -14 -14 -14 -14 -14 -14 -14 -15 -15 -15 -15 -15
-25 -24 -24 -23 -23 -22 -22 -22 -21 -21 -21 -21 -20 -19 -19 -19 -19 -20 -20 -19 -19 -19 -18 -18 -17 -17 -16 -16 -15 -15 -15 -15 -15 -14 -14 -14 -14 -14 -14 -14 -15 -15 -15 -15
-24 -24 -24 -24 -23 -22 -22 -22 -21 -21 -21 -21 -19 -19 -19 -20 -20 -20 -20 -19 -19 -18 -18 -18 -18 -17 -17 -17 -17 -16 -16 -16 -15 -15 -14 -15 -14 -14 -14 -14 -14 -15 -15 -15
-25 -25 -24 -24 -23 -22 -22 -22 -21 -21 -21 -20 -20 -20 -20 -20 -20 -20 -20 -19 -19 -19 -18 -18 -18 -18 -17 -17 -17 -17 -17 -16 -16 -15 -15 -15 -15 -14 -14 -14 -14 -14 -15 -15
-26 -25 -24 -23 -23 -23 -22 -22 -21 -22 -21 -21 -21 -20 -20 -21 -20 -20 -20 -20 -20 -20 -19 -19 -19 -19 -18 -18 -17 -17 -17 -16 -16 -16 -15 -15 -16 -14 -14 -14 -14 -14 -15 -15
-26 -25 -24 -24 -23 -23 -23 -22 -22 -22 -22 -22 -22 -21 -21 -20 -20 -20 -20 -20 -20 -20 -19 -19 -19 -19 -19 -19 -19 -18 -17 -17 -16 -16 -15 -15 -15 -15 -15 -15 -15 -15 -15 -15
-26 -25 -25 -24 -24 -23 -23 -23 -22 -22 -22 -22 -22 -22 -21 -21 -21 -20 -20 -20 -20 -20 -21 -20 -20 -20 -19 -19 -19 -19 -19 -18 -18 -17 -16 -15 -15 -15 -16 -16 -15 -15 -15 -14
-26 -25 -25 -24 -24 -23 -23 -23 -23 -22 -22 -23 -23 -22 -22 -22 -22 -21 -21 -21 -22 -21 -21 -20 -20 -20 -20 -20 -19 -19 -19 -19 -19 -18 -18 -16 -16 -15 -15 -16 -15 -15 -15 -15
-26 -26 -25 -24 -24 -23 -23 -22 -22 -23 -23 -23 -23 -23 -22 -22 -22 -22 -22 -21 -21 -21 -21 -21 -20 -20 -21 -20 -19 -19 -19 -19 -19 -19 -19 -19 -18 -18 -16 -16 -16 -16 -16 -16
-27 -26 -26 -25 -25 -25 -24 -23 -22 -23 -23 -22 -22 -23 -22 -22 -22 -22 -22 -21 -21 -21 -21 -21 -21 -21 -21 -21 -20 -20 -20 -19 -19 -19 -19 -18 -18 -18 -19 -19 -18 -18 -18 -18
-26 -26 -26 -26 -25 -25 -25 -25 -24 -23 -23 -23 -23 -23 -22 -22 -22 -22 -22 -22 -22 -21 -21 -21 -21 -22 -21 -21 -21 -21 -21 -20 -20 -20 -20 -19 -19 -19 -19 -19 -19 -19 -19 -19
-26 -26 -26 -26 -25 -25 -25 -24 -24 -24 -23 -23 -23 -23 -23 -23 -22 -22 -22 -22 -22 -22 -21 -22 -22 -22 -22 -22 -21 -21 -21 -21 -21 -21 -20 -20 -20 -20 -20 -19 -19 -19 -19 -19
-26 -26 -26 -26 -26 -25 -25 -25 -25 -24 -24 -23 -23 -23 -23 -23 -23 -23 -22 -22 -22 -22 -22 -22 -22 -22 -22 -22 -22 -21 -21 -21 -21 -21 -21 -21 -20 -20 -20 -20 -20 -20 -20 -20
-26 -26 -26 -26 -25 -25 -25 -25 -25 -25 -24 -24 -23 -23 -23 -23 -23 -22 -22 -22 -22 -22 -22 -22 -22 -22 -22 -22 -22 -22 -22 -21 -21 -21 -21 -21 -21 -21 -20 -20 -20 -20 -20 -20
-26 -26 -26 -25 -25 -26 -25 -25 -25 -25 -24 -24 -24 -23 -23 -23 -23 -22 -23 -22 -22 -22 -22 -22 -22 -22 -22 -22 -22 -22 -21 -21 -21 -21 -21 -21 -21 -21 -21 -21 -21 -21 -21 -20
-26 -26 -26 -25 -25 -25 -25 -25 -25 -25 -25 -25 -24 -24 -23 -22 -23 -23 -23 -22 -22 -22 -22 -22 -22 -22 -22 -21 -21 -21 -21 -21 -21 -21 -21 -21 -21 -21 -21 -21 -21 -21 -21 -21
-27 -26 -26 -25 -25 -25 -25 -25 -25 -25 -25 -24 -24 -24 -24 -24 -23 -23 -23 -23 -23 -23 -23 -23 -22 -22 -22 -22 -22 -22 -22 -22 -22 -22 -21 -21 -21 -21 -22 -22 -22 -22 -22 -22
-26 -26 -26 -26 -25 -25 -25 -25 -25 -24 -24 -24 -24 -23 -23 -23 -23 -23 -23 -23 -23 -23 -23 -22 -22 -22 -22 -22 -22 -22 -22 -22 -22 -23 -23 -23 -23 -23 -23 -23 -23 -23 -23 -23
-27 -27 -27 -26 -26 -26 -26 -26 -25 -25 -25 -25 -24 -24 -24 -24 -23 -23 -23 -23 -23 -23 -23 -23 -23 -23 -23 -23 -23 -23 -23 -23 -23 -23 -23 -23 -23 -23 -23 -23 -23 -23 -23 -22
-27 -27 -27 -27 -26 -26 -26 -26 -26 -26 -26 -26 -26 -25 -25 -25 -25 -25 -25 -25 -25 -24 -24 -24 -24 -24 -24 -24 -24 -24 -24 -24 -24 -23 -23 -23 -23 -23 -23 -23 -23 -23 -23 -23
-28 -28 -27 -27 -27 -27 -27 -26 -26 -26 -26 -26 -26 -26 -26 -25 -26 -25 -25 -25 -25 -25 -25 -25 -25 -25 -25 -25 -25 -24 -24 -24 -24 -24 -24 -24 -24 -24 -24 -24 -24 -24 -24 -24
-28 -28 -28 -28 -28 -27 -27 -27 -27 -27 -27 -27 -27 -26 -26 -26 -26 -26 -26 -26 -25 -25 -25 -25 -25 -25 -26 -26 -25 -25 -25 -25 -25 -25 -25 -25 -25 -25 -25 -25 -25 -25 -25 -25
-28 -28 -28 -28 -28 -28 -28 -28 -28 -28 -28 -28 -28 -27 -27 -27 -27 -27 -27 -27 -27 -26 -26 -26 -26 -26 -26 -26 -26 -26 -26 -26 -26 -26 -26 -26 -26 -26 -26 -26 -26 -26 -26 -26

GFSNGP_500_temp_126.txt.gz
Temp
-24 -23 -23 -23 -23 -22 -23 -22 -22 -22 -21 -22 -21 -20 -20 -19 -18 -17 -17 -16 -16 -17 -17 -17 -17 -17 -17 -17 -16 -16 -15 -15 -15 -15 -14 -14 -14 -14 -14 -13 -14 -14 -14 -15
-25 -24 -24 -24 -24 -23 -23 -23 -22 -21 -21 -21 -22 -21 -21 -20 -19 -17 -17 -17 -16 -17 -17 -17 -17 -18 -17 -17 -16 -16 -15 -15 -15 -14 -14 -14 -14 -14 -14 -14 -14 -14 -15 -15
-25 -25 -24 -24 -24 -23 -22 -22 -22 -21 -21 -21 -20 -21 -21 -20 -20 -19 -19 -18 -17 -17 -17 -18 -18 -18 -17 -17 -16 -16 -16 -15 -15 -14 -14 -14 -14 -14 -14 -14 -14 -15 -15 -15
-25 -24 -24 -24 -24 -23 -22 -23 -22 -22 -21 -21 -21 -21 -21 -21 -21 -20 -19 -19 -19 -19 -18 -19 -19 -18 -17 -17 -16 -16 -16 -15 -15 -15 -14 -14 -14 -14 -14 -14 -14 -15 -15 -15
-26 -25 -24 -24 -24 -23 -23 -23 -22 -22 -22 -20 -21 -21 -22 -21 -21 -20 -20 -19 -19 -19 -19 -19 -18 -18 -17 -17 -17 -17 -16 -16 -15 -15 -15 -14 -14 -14 -14 -15 -15 -15 -15 -15
-26 -25 -25 -24 -24 -24 -23 -23 -23 -22 -22 -22 -21 -22 -22 -21 -21 -21 -20 -20 -20 -19 -20 -20 -19 -19 -19 -18 -18 -17 -17 -17 -16 -15 -15 -15 -14 -14 -15 -15 -15 -15 -15 -15
-26 -25 -25 -25 -25 -24 -24 -23 -23 -22 -22 -22 -22 -22 -22 -22 -21 -21 -21 -20 -20 -20 -19 -20 -19 -19 -19 -18 -17 -17 -17 -17 -16 -16 -16 -15 -15 -15 -15 -15 -15 -15 -15 -15
-26 -26 -25 -25 -25 -24 -24 -23 -23 -22 -23 -22 -22 -22 -22 -21 -21 -20 -21 -20 -20 -19 -20 -20 -19 -19 -18 -18 -18 -17 -17 -17 -17 -16 -16 -16 -16 -15 -15 -15 -15 -15 -15 -15
-27 -26 -25 -25 -25 -25 -24 -25 -23 -23 -23 -23 -23 -22 -22 -21 -20 -21 -20 -20 -20 -20 -20 -20 -20 -19 -19 -18 -18 -18 -17 -17 -16 -16 -16 -16 -17 -16 -15 -15 -15 -15 -15 -15
-27 -27 -26 -26 -25 -25 -24 -24 -25 -23 -23 -23 -23 -23 -22 -21 -21 -21 -21 -21 -20 -21 -20 -20 -20 -20 -20 -19 -19 -18 -18 -18 -17 -17 -17 -17 -17 -17 -16 -16 -16 -15 -14 -14
-28 -27 -27 -26 -25 -25 -25 -24 -24 -24 -24 -23 -23 -23 -23 -23 -22 -21 -21 -21 -20 -20 -20 -20 -20 -20 -19 -20 -19 -19 -19 -19 -19 -18 -18 -18 -18 -17 -17 -17 -16 -16 -15 -15
-28 -28 -27 -27 -26 -26 -25 -25 -24 -24 -24 -23 -23 -23 -23 -23 -23 -22 -22 -21 -21 -20 -20 -21 -20 -20 -19 -20 -20 -20 -20 -19 -19 -19 -19 -18 -18 -18 -18 -17 -16 -16 -16 -16
-28 -28 -27 -27 -27 -26 -26 -25 -24 -24 -23 -23 -23 -23 -23 -23 -23 -23 -23 -22 -22 -22 -22 -21 -21 -21 -21 -21 -20 -20 -20 -20 -20 -20 -19 -19 -19 -19 -19 -19 -19 -18 -18 -17
-28 -28 -28 -27 -27 -26 -25 -25 -24 -24 -23 -23 -23 -23 -23 -23 -23 -23 -23 -22 -22 -22 -22 -22 -22 -21 -21 -21 -21 -21 -21 -21 -21 -20 -20 -20 -20 -19 -19 -19 -20 -19 -19 -19
-28 -28 -28 -27 -27 -27 -26 -26 -25 -25 -24 -23 -23 -23 -23 -23 -23 -23 -23 -23 -23 -22 -22 -22 -22 -21 -21 -21 -21 -21 -21 -21 -21 -21 -21 -21 -20 -20 -20 -20 -20 -20 -19 -19
-27 -28 -28 -27 -27 -27 -26 -26 -26 -26 -25 -24 -24 -23 -23 -23 -23 -23 -23 -23 -23 -23 -22 -22 -22 -22 -21 -21 -21 -21 -21 -21 -21 -21 -21 -21 -21 -21 -20 -20 -20 -20 -20 -20
-28 -28 -28 -27 -27 -27 -27 -26 -25 -25 -25 -25 -24 -24 -23 -23 -23 -23 -23 -23 -23 -23 -23 -22 -22 -22 -22 -22 -22 -22 -22 -22 -22 -22 -21 -21 -21 -21 -21 -21 -21 -20 -20 -20
-27 -27 -27 -27 -27 -27 -26 -26 -25 -25 -25 -25 -25 -24 -24 -23 -23 -23 -23 -23 -23 -23 -23 -23 -22 -22 -22 -22 -22 -22 -22 -22 -22 -22 -22 -22 -22 -21 -21 -21 -21 -21 -21 -21
-28 -27 -27 -27 -27 -26 -26 -26 -26 -26 -26 -25 -25 -25 -24 -24 -24 -24 -23 -23 -23 -23 -23 -23 -23 -23 -22 -22 -22 -22 -22 -22 -22 -22 -22 -22 -22 -22 -22 -22 -21 -21 -21 -21
-28 -28 -28 -27 -27 -27 -26 -26 -26 -26 -26 -26 -26 -25 -25 -25 -25 -25 -24 -24 -23 -23 -23 -23 -23 -23 -23 -23 -23 -23 -23 -22 -22 -22 -22 -22 -22 -22 -21 -21 -21 -21 -21 -21
-28 -28 -28 -28 -27 -27 -27 -27 -26 -26 -26 -26 -26 -26 -26 -26 -26 -25 -25 -25 -25 -24 -24 -24 -23 -23 -23 -23 -23 -23 -23 -23 -23 -23 -23 -22 -22 -22 -22 -22 -22 -21 -21 -21
-28 -28 -28 -28 -28 -28 -27 -27 -27 -27 -27 -26 -26 -26 -26 -26 -26 -26 -26 -26 -25 -25 -25 -25 -25 -25 -25 -24 -24 -24 -24 -24 -23 -23 -23 -23 -23 -22 -22 -22 -22 -22 -22 -22
-28 -28 -28 -28 -28 -27 -27 -27 -27 -27 -27 -27 -27 -27 -26 -26 -26 -25 -25 -26 -26 -26 -26 -26 -25 -25 -25 -25 -25 -24 -24 -24 -24 -23 -23 -23 -23 -22 -22 -23 -23 -23 -23 -23
-28 -28 -28 -28 -28 -28 -28 -28 -28 -28 -28 -28 -27 -27 -27 -27 -27 -26 -26 -26 -26 -26 -25 -25 -26 -26 -25 -25 -25 -25 -25 -25 -24 -23 -24 -23 -23 -23 -23 -24 -24 -24 -24 -24
-29 -29 -29 -29 -28 -28 -28 -28 -28 -28 -28 -28 -28 -28 -28 -27 -27 -27 -26 -26 -26 -26 -26 -26 -26 -26 -26 -26 -25 -25 -25 -25 -25 -25 -24 -24 -24 -24 -25 -25 -25 -25 -25 -25
-29 -29 -29 -29 -29 -29 -29 -29 -29 -29 -28 -28 -28 -28 -28 -28 -28 -28 -27 -27 -27 -27 -27 -27 -26 -26 -26 -26 -26 -26 -26 -26 -25 -25 -25 -25 -25 -25 -25 -25 -26 -25 -25 -25
-30 -30 -30 -30 -30 -30 -30 -30 -29 -29 -29 -29 -29 -29 -28 -28 -28 -28 -28 -28 -28 -28 -28 -28 -28 -28 -27 -27 -27 -27 -27 -27 -27 -27 -26 -26 -26 -27 -27 -27 -27 -27 -27 -27

GFSNGP_500_temp_129.txt.gz
Temp
-22 -24 -24 -24 -23 -23 -23 -23 -23 -22 -22 -21 -21 -21 -21 -20 -20 -19 -18 -17 -17 -16 -16 -17 -17 -17 -17 -17 -17 -17 -17 -16 -16 -16 -15 -15 -14 -14 -14 -14 -14 -14 -14 -14
-24 -25 -24 -24 -24 -24 -23 -23 -23 -22 -22 -22 -21 -20 -20 -21 -20 -19 -19 -18 -17 -16 -16 -17 -17 -17 -17 -17 -18 -18 -17 -17 -16 -16 -15 -15 -14 -14 -14 -14 -14 -14 -14 -14
-24 -25 -25 -24 -24 -24 -23 -23 -23 -22 -22 -21 -21 -21 -21 -21 -21 -20 -19 -19 -18 -17 -17 -17 -17 -17 -17 -17 -18 -17 -17 -16 -16 -15 -15 -15 -15 -14 -14 -14 -14 -14 -14 -14
-25 -26 -25 -25 -24 -24 -23 -22 -23 -23 -22 -22 -22 -21 -21 -21 -21 -20 -20 -19 -19 -19 -18 -17 -17 -17 -17 -18 -17 -17 -16 -16 -16 -16 -15 -15 -15 -15 -15 -15 -14 -14 -15 -15
-25 -26 -25 -25 -25 -24 -24 -23 -23 -23 -22 -22 -22 -21 -21 -21 -21 -21 -20 -19 -19 -19 -19 -19 -19 -18 -18 -18 -17 -17 -17 -16 -16 -16 -15 -15 -15 -15 -15 -15 -15 -15 -15 -15
-26 -26 -25 -25 -25 -24 -23 -23 -23 -22 -23 -22 -22 -21 -21 -22 -21 -21 -21 -21 -20 -20 -20 -19 -19 -19 -19 -18 -17 -16 -16 -17 -16 -16 -16 -15 -15 -15 -15 -15 -15 -14 -14 -15
-26 -26 -26 -26 -25 -25 -24 -23 -23 -23 -23 -22 -22 -22 -22 -22 -22 -20 -21 -21 -20 -20 -19 -19 -19 -19 -19 -18 -18 -17 -17 -17 -17 -16 -16 -16 -15 -15 -15 -15 -14 -15 -15 -15
-27 -27 -26 -26 -25 -25 -25 -24 -24 -23 -23 -22 -22 -22 -22 -21 -21 -21 -21 -20 -20 -20 -20 -19 -19 -19 -19 -18 -18 -18 -17 -17 -17 -16 -16 -16 -16 -16 -15 -15 -15 -15 -15 -15
-27 -27 -27 -26 -26 -25 -25 -25 -24 -24 -23 -23 -22 -22 -22 -21 -22 -21 -20 -20 -20 -20 -20 -20 -20 -19 -19 -19 -18 -18 -18 -17 -17 -17 -16 -16 -16 -16 -15 -15 -15 -15 -15 -15
-26 -27 -27 -27 -26 -26 -25 -25 -24 -24 -23 -23 -23 -23 -23 -23 -23 -22 -21 -21 -21 -20 -20 -20 -20 -20 -19 -19 -19 -19 -18 -18 -17 -17 -17 -16 -16 -16 -16 -15 -15 -15 -16 -16
-27 -27 -28 -27 -27 -27 -26 -25 -25 -24 -24 -24 -23 -23 -23 -23 -23 -22 -21 -21 -21 -21 -21 -20 -20 -20 -20 -20 -19 -19 -19 -19 -18 -18 -18 -17 -18 -17 -17 -17 -16 -16 -16 -16
-28 -29 -29 -28 -28 -27 -26 -26 -25 -25 -24 -24 -24 -23 -23 -23 -23 -22 -22 -22 -22 -21 -21 -21 -20 -20 -20 -20 -20 -19 -19 -19 -19 -19 -18 -18 -18 -18 -18 -18 -18 -18 -17 -17
-29 -29 -29 -28 -28 -27 -27 -26 -25 -25 -24 -24 -24 -24 -23 -23 -23 -23 -22 -22 -22 -22 -21 -21 -21 -20 -20 -20 -21 -20 -20 -20 -19 -19 -19 -19 -19 -19 -19 -19 -19 -19 -19 -18
-30 -30 -29 -28 -28 -27 -27 -26 -26 -25 -25 -24 -23 -23 -23 -23 -23 -23 -23 -23 -23 -22 -22 -22 -22 -22 -22 -21 -21 -21 -21 -20 -20 -20 -20 -20 -20 -20 -20 -19 -19 -19 -19 -19
-30 -29 -29 -28 -28 -28 -27 -27 -26 -25 -25 -24 -23 -23 -23 -23 -23 -23 -23 -23 -23 -23 -22 -22 -22 -22 -22 -22 -21 -21 -21 -21 -21 -20 -20 -20 -20 -20 -20 -20 -20 -20 -20 -20
-29 -29 -28 -28 -28 -28 -28 -27 -27 -26 -26 -25 -24 -23 -23 -23 -23 -23 -23 -23 -23 -22 -23 -22 -22 -22 -22 -22 -22 -22 -21 -21 -21 -21 -21 -21 -21 -21 -21 -21 -21 -21 -20 -20
-29 -28 -28 -28 -28 -28 -28 -28 -27 -27 -26 -26 -26 -25 -25 -24 -23 -23 -23 -23 -23 -23 -22 -23 -22 -22 -22 -22 -22 -22 -22 -21 -21 -21 -21 -21 -21 -21 -21 -21 -21 -21 -21 -21
-29 -28 -28 -28 -28 -28 -28 -28 -27 -27 -26 -26 -26 -26 -25 -25 -24 -23 -23 -23 -23 -23 -23 -23 -23 -23 -23 -23 -22 -22 -23 -22 -22 -22 -22 -22 -22 -22 -22 -22 -21 -21 -21 -21
-29 -28 -28 -28 -28 -27 -27 -27 -27 -27 -26 -26 -26 -26 -26 -25 -25 -24 -24 -23 -24 -24 -23 -24 -23 -23 -23 -23 -23 -23 -23 -23 -23 -22 -23 -23 -22 -22 -22 -22 -22 -22 -22 -21
-29 -29 -28 -28 -28 -28 -27 -27 -27 -27 -27 -27 -27 -27 -27 -26 -26 -26 -25 -25 -25 -25 -24 -24 -24 -24 -23 -23 -23 -23 -23 -23 -23 -23 -22 -23 -23 -22 -22 -22 -22 -22 -22 -22
-28 -28 -28 -28 -28 -28 -28 -28 -27 -27 -27 -27 -27 -27 -27 -27 -27 -27 -27 -26 -26 -26 -25 -25 -25 -24 -24 -24 -24 -24 -23 -23 -23 -23 -23 -23 -23 -23 -23 -23 -22 -22 -22 -22
-29 -29 -28 -28 -28 -28 -28 -28 -28 -28 -27 -27 -27 -27 -27 -27 -27 -27 -27 -27 -26 -26 -26 -26 -26 -26 -25 -25 -25 -25 -24 -24 -24 -24 -24 -24 -24 -23 -23 -23 -23 -23 -23 -22
-29 -29 -28 -28 -28 -28 -28 -28 -28 -28 -28 -28 -27 -27 -27 -27 -27 -27 -27 -27 -27 -27 -27 -26 -26 -26 -26 -26 -26 -26 -26 -25 -25 -25 -25 -25 -25 -24 -24 -24 -24 -24 -24 -23
-29 -29 -29 -29 -29 -29 -28 -28 -29 -28 -28 -28 -28 -28 -27 -27 -27 -27 -27 -27 -27 -27 -27 -27 -27 -27 -27 -27 -27 -26 -26 -26 -26 -26 -26 -26 -26 -25 -25 -25 -25 -25 -24 -24
-29 -29 -29 -29 -29 -29 -29 -29 -29 -29 -29 -29 -29 -29 -28 -28 -28 -28 -28 -27 -27 -27 -27 -27 -27 -27 -27 -26 -27 -27 -26 -26 -26 -26 -26 -26 -26 -26 -25 -25 -25 -25 -25 -25
-30 -30 -30 -30 -30 -30 -30 -30 -30 -30 -30 -29 -29 -29 -29 -29 -29 -29 -29 -28 -28 -28 -28 -27 -27 -27 -27 -27 -27 -27 -27 -27 -27 -26 -26 -26 -26 -26 -26 -26 -26 -26 -26 -26
-30 -30 -31 -31 -31 -31 -31 -31 -31 -31 -31 -31 -30 -30 -30 -30 -30 -29 -29 -29 -29 -29 -29 -29 -28 -28 -28 -28 -28 -28 -28 -28 -27 -27 -27 -27 -27 -27 -27 -27 -27 -27 -27 -27

GFSNGP_500_temp_135.txt.gz
Temp
-21 -20 -20 -20 -21 -21 -21 -21 -22 -23 -23 -22 -22 -22 -22 -20 -20 -21 -20 -20 -19 -18 -17 -17 -17 -17 -17 -17 -16 -16 -16 -15 -14 -14 -14 -14 -14 -14 -14 -14 -14 -14 -14 -14
-21 -21 -21 -21 -21 -21 -21 -23 -24 -24 -23 -22 -22 -22 -22 -20 -20 -21 -20 -20 -20 -19 -18 -17 -17 -17 -17 -16 -16 -16 -15 -15 -15 -15 -15 -15 -14 -14 -14 -14 -14 -14 -13 -13
-21 -21 -21 -21 -21 -21 -21 -23 -24 -24 -23 -23 -22 -22 -22 -21 -20 -21 -20 -20 -20 -20 -19 -18 -17 -17 -17 -17 -16 -16 -16 -16 -16 -16 -16 -15 -15 -15 -15 -15 -14 -15 -15 -14
-22 -21 -21 -21 -22 -22 -22 -23 -24 -24 -23 -23 -22 -22 -22 -22 -20 -20 -20 -21 -20 -20 -20 -19 -19 -17 -17 -17 -17 -17 -16 -16 -16 -16 -16 -16 -16 -16 -16 -16 -15 -15 -15 -15
-22 -22 -22 -22 -22 -22 -23 -24 -25 -25 -24 -23 -23 -22 -22 -22 -21 -20 -20 -20 -20 -20 -20 -20 -19 -19 -18 -17 -17 -17 -17 -17 -17 -17 -17 -17 -17 -17 -17 -16 -16 -16 -15 -15
-22 -22 -22 -23 -23 -24 -24 -25 -25 -25 -25 -24 -24 -23 -22 -22 -22 -21 -20 -20 -20 -20 -20 -20 -20 -19 -19 -18 -18 -18 -17 -17 -18 -17 -17 -17 -16 -16 -16 -16 -16 -16 -15 -15
-22 -23 -23 -23 -23 -24 -25 -25 -25 -25 -25 -25 -24 -23 -23 -22 -21 -21 -20 -20 -20 -19 -20 -19 -19 -19 -19 -19 -18 -18 -18 -18 -17 -18 -18 -17 -17 -16 -16 -16 -16 -15 -15 -15
-23 -23 -24 -24 -24 -25 -25 -25 -26 -26 -26 -25 -25 -24 -23 -23 -22 -21 -21 -21 -21 -20 -20 -20 -19 -19 -19 -19 -20 -19 -19 -18 -18 -18 -17 -17 -17 -17 -16 -16 -16 -16 -15 -15
-23 -24 -24 -24 -25 -25 -26 -26 -26 -26 -26 -26 -25 -25 -24 -24 -23 -22 -22 -21 -21 -21 -21 -21 -19 -19 -19 -20 -20 -20 -19 -19 -18 -18 -18 -17 -17 -17 -17 -16 -16 -16 -16 -15
-24 -24 -25 -25 -26 -26 -26 -26 -26 -26 -26 -26 -26 -25 -25 -24 -24 -23 -23 -22 -22 -21 -21 -21 -21 -20 -20 -20 -19 -19 -19 -19 -18 -18 -18 -18 -17 -17 -17 -17 -16 -16 -16 -16
-24 -25 -25 -26 -26 -27 -27 -27 -27 -27 -27 -27 -26 -26 -25 -24 -24 -24 -23 -23 -22 -22 -22 -21 -21 -21 -20 -20 -20 -20 -19 -19 -18 -18 -18 -18 -17 -17 -17 -17 -17 -16 -16 -16
-25 -25 -26 -26 -26 -27 -27 -28 -28 -28 -28 -27 -27 -26 -25 -25 -24 -24 -23 -23 -23 -22 -22 -21 -21 -21 -21 -21 -21 -20 -20 -19 -19 -19 -18 -18 -18 -17 -17 -17 -17 -17 -17 -17
-25 -26 -26 -27 -27 -27 -28 -29 -29 -29 -28 -27 -27 -26 -26 -26 -25 -24 -23 -23 -23 -23 -23 -22 -21 -21 -21 -21 -21 -21 -20 -20 -20 -19 -19 -19 -19 -18 -18 -18 -17 -17 -17 -17
-26 -27 -27 -27 -28 -29 -30 -30 -29 -29 -28 -28 -27 -27 -26 -26 -25 -24 -24 -23 -23 -23 -23 -23 -23 -22 -22 -21 -21 -21 -21 -21 -21 -20 -20 -20 -19 -19 -19 -19 -18 -18 -18 -18
-27 -27 -28 -29 -30 -30 -30 -29 -29 -29 -28 -28 -28 -27 -26 -26 -25 -25 -24 -24 -24 -24 -23 -23 -23 -23 -23 -22 -22 -22 -22 -21 -21 -21 -21 -21 -21 -20 -20 -20 -20 -20 -19 -19
-28 -28 -28 -29 -30 -30 -29 -29 -29 -29 -28 -28 -28 -27 -27 -26 -25 -25 -25 -24 -24 -24 -24 -24 -23 -23 -23 -23 -23 -23 -23 -22 -22 -22 -22 -21 -21 -21 -21 -21 -21 -21 -21 -21
-28 -29 -29 -29 -29 -29 -29 -29 -29 -28 -28 -28 -28 -28 -27 -26 -25 -25 -25 -25 -25 -24 -24 -24 -24 -23 -23 -23 -23 -23 -23 -23 -23 -23 -22 -22 -22 -22 -22 -21 -21 -21 -21 -21
-29 -29 -29 -29 -29 -29 -28 -28 -28 -28 -28 -28 -28 -28 -28 -27 -26 -26 -26 -25 -25 -25 -24 -24 -24 -24 -24 -24 -23 -23 -23 -23 -23 -23 -23 -23 -23 -23 -22 -22 -22 -22 -22 -21
-29 -29 -29 -29 -29 -29 -29 -28 -29 -29 -28 -28 -28 -28 -28 -27 -27 -27 -26 -26 -26 -26 -26 -25 -25 -24 -24 -24 -24 -23 -23 -23 -23 -23 -23 -23 -23 -22 -22 -23 -23 -22 -22 -22
-28 -29 -29 -29 -29 -29 -29 -29 -29 -29 -28 -28 -28 -27 -27 -27 -27 -27 -27 -27 -26 -26 -26 -26 -26 -25 -25 -25 -24 -24 -24 -24 -24 -24 -23 -23 -23 -23 -23 -23 -22 -22 -22 -22
-28 -28 -28 -28 -29 -29 -29 -29 -28 -28 -28 -28 -28 -28 -28 -28 -28 -28 -27 -27 -27 -27 -27 -27 -26 -26 -26 -26 -25 -25 -25 -25 -24 -24 -24 -24 -24 -24 -23 -23 -23 -23 -23 -23
-28 -29 -29 -29 -29 -29 -29 -29 -29 -29 -29 -29 -29 -29 -28 -28 -28 -28 -28 -28 -28 -28 -28 -27 -27 -27 -27 -27 -26 -26 -26 -26 -26 -25 -25 -25 -25 -25 -24 -24 -24 -24 -24 -24
-29 -29 -29 -29 -29 -29 -30 -30 -30 -30 -30 -29 -29 -29 -29 -29 -29 -28 -28 -28 -28 -28 -28 -28 -28 -28 -27 -27 -27 -27 -27 -27 -27 -26 -26 -26 -26 -25 -25 -25 -25 -25 -25 -25
-29 -29 -29 -30 -30 -30 -30 -30 -30 -30 -30 -30 -30 -30 -30 -30 -30 -30 -29 -29 -29 -29 -28 -28 -28 -28 -28 -28 -28 -27 -27 -27 -27 -27 -27 -27 -27 -27 -26 -26 -26 -26 -26 -26
-29 -30 -30 -30 -30 -30 -30 -30 -30 -30 -31 -31 -31 -31 -31 -31 -31 -31 -31 -30 -30 -30 -29 -29 -29 -29 -29 -28 -28 -28 -28 -28 -28 -27 -27 -27 -27 -27 -27 -27 -27 -27 -27 -27
-29 -30 -30 -30 -30 -30 -30 -31 -31 -31 -31 -31 -31 -31 -31 -31 -31 -31 -31 -31 -31 -31 -31 -30 -30 -30 -29 -29 -29 -29 -29 -29 -29 -28 -28 -28 -28 -28 -28 -27 -27 -27 -27 -27
-29 -29 -30 -30 -30 -30 -30 -31 -31 -31 -31 -31 -31 -32 -32 -32 -32 -32 -32 -32 -31 -31 -31 -31 -31 -30 -30 -30 -30 -30 -29 -29 -29 -29 -29 -29 -29 -29 -28 -28 -28 -28 -28 -28

GFSNGP_500_temp_141.txt.gz
Temp
-17 -17 -17 -18 -19 -19 -20 -20 -19 -20 -19 -19 -19 -19 -19 -19 -21 -21 -20 -21 -21 -20 -20 -19 -19 -19 -18 -18 -18 -18 -18 -18 -18 -18 -18 -18 -18 -17 -17 -17 -17 -16 -15 -16
-18 -18 -18 -18 -19 -20 -20 -20 -20 -20 -20 -19 -20 -19 -19 -20 -20 -21 -21 -21 -21 -20 -20 -20 -20 -19 -18 -18 -18 -18 -18 -17 -17 -17 -17 -17 -17 -17 -17 -17 -17 -17 -17 -16
-19 -19 -19 -19 -20 -20 -21 -21 -20 -20 -20 -20 -20 -20 -20 -20 -20 -21 -21 -21 -21 -20 -20 -20 -20 -19 -19 -18 -18 -18 -17 -17 -17 -17 -17 -16 -17 -16 -16 -16 -16 -16 -16 -16
-20 -19 -19 -20 -21 -22 -22 -21 -21 -21 -21 -21 -21 -21 -20 -21 -21 -21 -21 -21 -21 -20 -20 -20 -20 -20 -19 -19 -17 -18 -18 -18 -18 -18 -17 -17 -17 -17 -16 -16 -16 -16 -15 -15
-20 -20 -20 -21 -22 -22 -22 -21 -21 -21 -21 -21 -21 -21 -21 -21 -21 -21 -21 -21 -21 -20 -21 -20 -20 -20 -20 -19 -18 -18 -18 -17 -17 -17 -17 -17 -17 -17 -16 -16 -16 -16 -15 -14
-21 -21 -21 -21 -22 -22 -22 -22 -22 -22 -22 -22 -22 -22 -21 -21 -21 -21 -22 -22 -21 -21 -20 -20 -20 -20 -19 -20 -19 -18 -18 -17 -17 -17 -16 -16 -17 -16 -16 -15 -15 -15 -15 -15
-22 -22 -22 -22 -23 -23 -22 -22 -22 -22 -22 -22 -22 -22 -22 -22 -22 -22 -22 -22 -21 -22 -21 -20 -20 -19 -19 -19 -20 -20 -19 -18 -18 -17 -17 -17 -17 -17 -16 -17 -16 -16 -15 -15
-22 -22 -22 -23 -23 -23 -23 -22 -22 -22 -23 -23 -23 -23 -23 -23 -23 -23 -23 -23 -22 -22 -22 -21 -20 -20 -19 -19 -19 -20 -20 -19 -18 -18 -18 -18 -18 -18 -18 -18 -17 -17 -17 -16
-23 -23 -24 -23 -23 -23 -23 -23 -23 -23 -23 -23 -23 -24 -24 -24 -24 -24 -24 -24 -24 -23 -22 -22 -21 -20 -20 -19 -19 -20 -20 -20 -19 -19 -19 -18 -18 -18 -18 -17 -17 -17 -17 -16
-24 -24 -24 -24 -23 -23 -23 -23 -23 -23 -23 -24 -24 -25 -25 -25 -25 -25 -25 -25 -25 -24 -23 -23 -22 -22 -21 -20 -20 -20 -20 -20 -20 -20 -19 -19 -18 -18 -18 -18 -17 -17 -17 -16
-24 -24 -24 -23 -23 -23 -23 -23 -23 -24 -24 -25 -25 -25 -26 -26 -26 -26 -26 -25 -25 -25 -24 -23 -23 -22 -22 -22 -21 -21 -21 -20 -20 -20 -19 -19 -19 -18 -18 -18 -18 -18 -17 -17
-24 -24 -24 -23 -24 -23 -23 -24 -24 -25 -26 -26 -26 -27 -27 -27 -27 -27 -27 -26 -26 -25 -24 -24 -24 -23 -22 -22 -22 -21 -21 -21 -21 -20 -20 -20 -20 -19 -19 -18 -18 -18 -18 -17
-24 -24 -24 -24 -24 -24 -24 -25 -26 -26 -26 -27 -28 -29 -29 -29 -28 -28 -28 -27 -26 -26 -25 -25 -24 -24 -23 -23 -22 -22 -22 -21 -21 -21 -21 -20 -20 -20 -20 -19 -19 -18 -18 -18
-24 -24 -24 -24 -25 -25 -26 -27 -27 -27 -28 -29 -29 -29 -28 -28 -28 -28 -28 -27 -27 -26 -26 -26 -24 -24 -24 -24 -23 -22 -22 -22 -22 -22 -21 -21 -21 -20 -20 -20 -20 -19 -19 -18
-24 -24 -25 -26 -26 -27 -28 -28 -28 -28 -29 -29 -29 -29 -28 -28 -28 -28 -27 -27 -27 -26 -26 -26 -25 -25 -24 -24 -23 -23 -23 -23 -22 -22 -22 -22 -21 -21 -21 -21 -20 -20 -20 -19
-25 -26 -26 -27 -28 -28 -28 -28 -28 -29 -29 -29 -28 -28 -29 -28 -28 -28 -28 -28 -27 -27 -26 -26 -25 -25 -25 -24 -24 -24 -23 -23 -23 -23 -23 -22 -22 -22 -22 -21 -21 -21 -21 -21
-27 -27 -28 -28 -28 -28 -28 -28 -29 -29 -28 -28 -28 -28 -28 -28 -28 -28 -28 -28 -28 -27 -27 -26 -26 -26 -25 -25 -25 -24 -24 -24 -24 -23 -23 -23 -23 -23 -22 -22 -22 -22 -22 -21
-28 -28 -28 -28 -28 -28 -28 -28 -29 -29 -29 -28 -28 -29 -28 -28 -28 -28 -28 -28 -28 -28 -27 -27 -26 -26 -26 -25 -25 -25 -24 -24 -24 -24 -24 -24 -24 -23 -23 -23 -23 -23 -22 -22
-28 -28 -28 -28 -28 -28 -28 -28 -29 -29 -29 -29 -29 -29 -29 -29 -29 -29 -28 -28 -28 -28 -28 -28 -27 -27 -27 -26 -26 -25 -25 -25 -24 -24 -24 -24 -24 -24 -24 -24 -24 -23 -23 -23
-28 -28 -28 -28 -28 -28 -29 -29 -29 -29 -29 -29 -29 -29 -29 -29 -29 -29 -29 -28 -28 -28 -28 -28 -28 -27 -27 -27 -27 -26 -26 -26 -25 -25 -25 -24 -24 -24 -24 -24 -24 -24 -23 -23
-28 -28 -28 -28 -28 -29 -29 -29 -29 -29 -29 -29 -29 -30 -29 -29 -29 -29 -29 -29 -29 -29 -28 -28 -28 -28 -28 -28 -27 -27 -27 -27 -26 -26 -26 -25 -25 -25 -25 -24 -24 -24 -24 -24
-28 -28 -28 -28 -29 -29 -29 -29 -29 -29 -29 -30 -30 -30 -30 -30 -30 -30 -30 -30 -30 -30 -30 -29 -29 -29 -28 -28 -28 -28 -28 -28 -27 -27 -27 -27 -26 -26 -26 -25 -25 -25 -25 -24
-28 -28 -28 -29 -29 -29 -29 -29 -29 -29 -29 -29 -30 -30 -30 -30 -30 -30 -30 -31 -31 -31 -31 -31 -31 -30 -30 -29 -29 -28 -28 -28 -28 -28 -28 -27 -27 -27 -27 -27 -26 -26 -26 -26
-28 -28 -28 -29 -28 -28 -28 -28 -29 -29 -29 -29 -29 -29 -30 -30 -30 -30 -31 -31 -31 -31 -31 -31 -31 -31 -31 -31 -30 -30 -29 -29 -28 -28 -28 -28 -28 -28 -28 -27 -27 -27 -27 -27
-28 -28 -28 -28 -28 -28 -28 -28 -28 -29 -29 -29 -29 -29 -30 -30 -30 -30 -31 -31 -31 -31 -32 -32 -32 -32 -32 -31 -31 -31 -30 -30 -30 -29 -29 -29 -29 -29 -28 -28 -28 -28 -28 -28
-28 -28 -28 -28 -28 -28 -28 -28 -29 -29 -29 -29 -29 -29 -30 -30 -30 -30 -31 -31 -31 -32 -32 -32 -32 -33 -33 -33 -33 -33 -33 -32 -31 -31 -30 -30 -30 -30 -29 -29 -29 -29 -28 -28
-28 -28 -28 -28 -28 -28 -28 -29 -29 -29 -29 -29 -29 -30 -30 -30 -30 -31 -31 -31 -32 -32 -32 -33 -33 -33 -34 -34 -34 -34 -34 -34 -33 -33 -32 -31 -31 -31 -30 -30 -30 -30 -29 -29

GFSNGP_500_temp_144.txt.gz
Temp
-17 -17 -17 -16 -17 -18 -18 -18 -18 -20 -20 -20 -19 -20 -19 -19 -19 -18 -18 -18 -19 -20 -20 -20 -20 -20 -19 -18 -17 -18 -18 -18 -18 -18 -18 -17 -17 -16 -15 -16 -16 -13 -14 -14
-17 -17 -17 -17 -17 -18 -18 -18 -19 -20 -21 -20 -20 -20 -19 -19 -19 -19 -18 -18 -19 -19 -20 -20 -20 -20 -19 -19 -18 -17 -18 -18 -18 -18 -18 -18 -17 -17 -17 -17 -16 -16 -16 -15
-18 -18 -18 -17 -18 -18 -19 -19 -19 -20 -21 -21 -21 -20 -20 -20 -19 -19 -19 -19 -19 -19 -20 -20 -20 -20 -19 -19 -19 -18 -17 -18 -18 -18 -18 -17 -17 -17 -17 -17 -17 -17 -16 -16
-19 -19 -18 -19 -18 -19 -19 -20 -20 -21 -21 -21 -21 -20 -20 -20 -20 -20 -20 -19 -19 -20 -20 -20 -20 -20 -20 -19 -19 -19 -18 -18 -18 -17 -17 -17 -17 -17 -17 -17 -16 -16 -16 -16
-19 -19 -20 -19 -18 -20 -20 -20 -21 -22 -22 -21 -21 -21 -20 -21 -20 -20 -20 -20 -20 -20 -20 -20 -21 -20 -19 -20 -19 -20 -18 -18 -18 -18 -18 -18 -17 -17 -16 -16 -16 -16 -15 -15
-20 -20 -21 -20 -18 -21 -21 -21 -21 -22 -22 -22 -21 -21 -21 -21 -21 -20 -20 -20 -20 -20 -20 -20 -21 -21 -20 -20 -19 -20 -20 -18 -18 -18 -17 -18 -18 -17 -16 -16 -16 -16 -16 -14
-21 -21 -21 -19 -20 -21 -21 -21 -22 -23 -22 -22 -22 -22 -22 -22 -21 -21 -21 -21 -21 -21 -21 -21 -21 -21 -21 -20 -19 -19 -19 -19 -18 -18 -18 -17 -17 -16 -16 -17 -17 -17 -16 -16
-21 -22 -21 -19 -22 -21 -22 -23 -23 -23 -22 -22 -22 -22 -22 -22 -22 -22 -22 -22 -22 -22 -22 -22 -22 -22 -21 -21 -20 -19 -19 -19 -20 -18 -18 -17 -17 -17 -16 -16 -17 -17 -16 -16
-22 -22 -21 -21 -22 -23 -23 -23 -23 -23 -23 -23 -22 -22 -22 -22 -22 -22 -22 -23 -23 -23 -23 -24 -24 -23 -22 -21 -21 -20 -20 -19 -20 -20 -19 -18 -18 -18 -17 -16 -16 -16 -16 -16
-22 -22 -22 -23 -23 -24 -24 -23 -23 -23 -22 -23 -23 -23 -23 -23 -23 -23 -24 -24 -25 -25 -25 -25 -25 -25 -24 -22 -21 -21 -21 -20 -20 -20 -20 -19 -19 -19 -18 -18 -18 -18 -17 -18
-23 -23 -23 -24 -24 -24 -24 -23 -23 -23 -23 -23 -23 -23 -24 -24 -25 -25 -25 -26 -26 -26 -26 -26 -26 -25 -24 -23 -22 -22 -22 -21 -21 -20 -20 -20 -20 -19 -19 -18 -18 -17 -17 -17
-23 -23 -24 -24 -24 -24 -24 -23 -23 -23 -23 -24 -24 -25 -25 -26 -27 -27 -28 -28 -28 -28 -27 -27 -26 -25 -24 -24 -23 -23 -22 -22 -22 -21 -21 -21 -20 -20 -19 -19 -18 -18 -18 -17
-24 -24 -24 -24 -24 -24 -23 -24 -24 -24 -25 -25 -26 -26 -27 -28 -29 -28 -28 -28 -28 -28 -27 -27 -26 -26 -25 -25 -24 -23 -23 -22 -22 -22 -21 -21 -21 -21 -20 -20 -19 -19 -18 -18
-25 -24 -24 -24 -24 -24 -24 -25 -25 -26 -27 -27 -27 -28 -29 -29 -28 -28 -28 -28 -28 -28 -27 -27 -27 -26 -26 -25 -25 -24 -24 -23 -23 -22 -22 -22 -21 -21 -21 -20 -20 -20 -19 -19
-24 -24 -24 -24 -24 -25 -25 -26 -27 -27 -28 -28 -28 -29 -28 -28 -28 -28 -28 -28 -28 -28 -28 -27 -27 -26 -26 -26 -25 -25 -24 -24 -24 -23 -22 -22 -22 -22 -21 -21 -21 -20 -20 -20
-24 -24 -25 -25 -26 -26 -27 -27 -28 -28 -28 -28 -28 -28 -28 -28 -28 -29 -28 -28 -28 -28 -28 -28 -27 -27 -26 -26 -25 -25 -24 -24 -24 -24 -23 -23 -23 -22 -22 -22 -21 -21 -21 -21
-24 -25 -26 -26 -27 -28 -28 -28 -28 -28 -28 -28 -28 -28 -28 -28 -28 -28 -28 -28 -28 -28 -28 -28 -28 -27 -27 -27 -26 -26 -26 -25 -24 -24 -24 -24 -24 -23 -23 -23 -22 -22 -22 -21
-26 -27 -27 -28 -28 -28 -28 -28 -28 -28 -29 -29 -29 -29 -29 -29 -29 -29 -29 -29 -28 -28 -28 -28 -28 -28 -28 -27 -27 -26 -26 -26 -26 -25 -25 -25 -24 -24 -24 -24 -23 -23 -23 -23
-27 -27 -28 -28 -28 -28 -28 -28 -28 -28 -29 -29 -29 -29 -29 -29 -29 -29 -29 -29 -29 -28 -28 -28 -28 -28 -28 -28 -28 -27 -27 -26 -26 -26 -26 -25 -25 -25 -24 -24 -24 -24 -24 -24
-27 -28 -28 -28 -28 -28 -28 -28 -28 -29 -29 -29 -29 -29 -29 -29 -30 -30 -30 -30 -29 -29 -29 -29 -29 -28 -28 -28 -28 -28 -28 -27 -27 -27 -26 -26 -26 -25 -25 -25 -25 -25 -24 -24
-28 -28 -28 -28 -28 -28 -28 -28 -28 -28 -29 -29 -29 -29 -29 -29 -30 -30 -30 -30 -30 -30 -30 -30 -30 -30 -30 -29 -29 -28 -28 -28 -28 -27 -27 -27 -27 -26 -26 -25 -25 -25 -25 -25
-28 -28 -28 -28 -28 -28 -28 -28 -28 -28 -28 -29 -29 -29 -29 -29 -29 -29 -30 -30 -30 -30 -30 -30 -30 -30 -30 -31 -30 -30 -30 -29 -28 -28 -28 -28 -27 -27 -27 -27 -26 -26 -25 -25
-28 -28 -28 -28 -28 -28 -28 -28 -28 -28 -28 -28 -28 -29 -29 -29 -29 -29 -29 -30 -30 -30 -30 -31 -31 -31 -31 -31 -31 -31 -31 -31 -30 -29 -28 -28 -28 -28 -27 -27 -27 -27 -27 -27
-28 -28 -28 -28 -28 -28 -28 -28 -28 -28 -28 -28 -29 -29 -29 -29 -29 -29 -29 -30 -30 -30 -30 -31 -31 -31 -31 -32 -32 -32 -32 -31 -31 -30 -30 -29 -29 -28 -28 -28 -28 -28 -28 -27
-28 -28 -28 -28 -27 -27 -28 -28 -28 -28 -28 -28 -29 -29 -29 -29 -29 -30 -30 -30 -30 -30 -31 -31 -31 -31 -32 -32 -32 -33 -33 -33 -32 -32 -32 -31 -30 -30 -29 -29 -29 -28 -28 -28
-28 -28 -28 -27 -28 -28 -28 -28 -28 -28 -28 -28 -29 -29 -29 -29 -29 -30 -30 -30 -30 -31 -31 -31 -31 -32 -32 -33 -33 -33 -33 -34 -34 -34 -34 -33 -33 -32 -31 -31 -30 -30 -30 -29
-28 -28 -27 -28 -27 -28 -28 -28 -28 -28 -29 -29 -29 -29 -29 -30 -30 -30 -30 -31 -31 -31 -31 -32 -32 -32 -33 -33 -33 -34 -34 -35 -35 -35 -35 -35 -34 -34 -34 -33 -32 -31 -31 -31